North Myrtle Beach, SC

3:19 PM EST on November 22, 2019 (GMT -0500)
Grand Strand

Weather History for KCRE - August, 2019

Change the Weather History Date:

Friday, August 9, 2019

  Actual Average Record
Temperature  
Mean Temperature 85 °F 79 °F  
Max Temperature 93 °F 86 °F 95 °F (1960)
Min Temperature 76 °F 72 °F 60 °F (1950)
Degree Days  
Heating Degree Days 0 0  
Month to date heating degree days 0 0  
Since 1 June heating degree days 0 0  
Since 1 July heating degree days 0 0  
Cooling Degree Days 20 14  
Month to date cooling degree days 144 131  
Year to date cooling degree days 1436 1176  
Since 1 June cooling degree days 1043 964  
Growing Degree Days 33 (Base 50)    
Moisture  
Dew Point 76 °F    
Average Humidity 75    
Maximum Humidity 100    
Minimum Humidity 49    
Precipitation  
Precipitation 0.00 in 0.20 in 2.40 in (1990)
Month to date precipitation 0.48 1.86  
Year to date precipitation 23.49 29.80  
Sea Level Pressure  
Sea Level Pressure 29.87 in    
Wind  
Wind Speed 7 mph (SSW)    
Max Wind Speed 14 mph    
Max Gust Speed 17 mph    
Visibility 10 miles    
Events      
T = Trace of Precipitation, MM = Missing Value Source: NWS Daily Summary

Daily Weather History Graph

Daily Weather History Graph

Search for Another Location

Airport or City:

Astronomy

Aug. 09, 2019 Rise Set
Actual Time 6:32 AM EDT 8:08 PM EDT
Civil Twilight 6:05 AM EDT 8:34 PM EDT
Nautical Twilight 5:33 AM EDT 9:06 PM EDT
Astronomical Twilight 4:59 AM EDT 9:40 PM EDT
Moon 3:43 PM EDT (8/9) 1:29 AM EDT (8/9)
Length of Visible Light 14h 29m
Length of Day
13h 35m
Waxing Gibbous, 70% of the Moon is Illuminated
Aug 9
Waxing Gibbous
Aug 15
Full
Aug 23
Last Quarter
Aug 30
New
Sep 5
First Quarter

Hourly Weather History & Observations

Time (EDT) Temp. Heat Index Dew Point Humidity Pressure Visibility Wind Dir Wind Speed Gust Speed Precip Events Conditions
12:53 AM 78.1 °F - 75.0 °F 90% 29.88 in 10.0 mi Calm Calm - N/A   Clear
1:53 AM 78.1 °F - 75.9 °F 93% 29.86 in 10.0 mi Calm Calm - N/A   Clear
2:53 AM 77.0 °F - 75.0 °F 94% 29.86 in 9.0 mi Calm Calm - N/A   Clear
3:53 AM 79.0 °F - 75.9 °F 90% 29.84 in 10.0 mi Calm Calm - N/A   Clear
4:53 AM 78.1 °F - 75.9 °F 93% 29.85 in 9.0 mi SSW 3.5 mph - N/A   Mostly Cloudy
5:53 AM 77.0 °F - 75.9 °F 96% 29.85 in 9.0 mi SSW 3.5 mph - N/A   Clear
6:53 AM 75.9 °F - 75.0 °F 97% 29.86 in 6.0 mi Calm Calm - N/A   Clear
7:53 AM 80.1 °F 85.4 °F 75.9 °F 87% 29.88 in 8.0 mi NW 4.6 mph - N/A   Clear
8:53 AM 82.0 °F 90.2 °F 77.0 °F 85% 29.89 in 10.0 mi NW 4.6 mph - N/A   Clear
9:53 AM 87.1 °F 98.8 °F 77.0 °F 72% 29.89 in 10.0 mi North 5.8 mph - N/A   Clear
10:53 AM 91.0 °F 99.3 °F 73.0 °F 55% 29.90 in 10.0 mi North 5.8 mph - N/A   Clear
11:53 AM 90.0 °F 100.2 °F 75.0 °F 61% 29.90 in 10.0 mi SSE 6.9 mph - N/A   Clear
12:53 PM 91.0 °F 98.2 °F 72.0 °F 53% 29.89 in 10.0 mi SSE 9.2 mph - N/A   Partly Cloudy
1:53 PM 91.9 °F 97.4 °F 70.0 °F 48% 29.88 in 10.0 mi South 9.2 mph - N/A   Clear
2:53 PM 91.0 °F 101.6 °F 75.0 °F 59% 29.86 in 10.0 mi South 11.5 mph - N/A   Clear
3:53 PM 91.0 °F 102.9 °F 75.9 °F 61% 29.85 in 10.0 mi SSW 10.4 mph - N/A   Clear
4:53 PM 90.0 °F 102.5 °F 77.0 °F 65% 29.85 in 10.0 mi SSW 10.4 mph - N/A   Clear
5:53 PM 88.0 °F 104.3 °F 80.1 °F 77% 29.85 in 10.0 mi South 13.8 mph - N/A   Clear
6:53 PM 88.0 °F 97.5 °F 75.0 °F 65% 29.86 in 10.0 mi SSW 10.4 mph - N/A   Clear
7:53 PM 86.0 °F 95.1 °F 75.0 °F 70% 29.87 in 10.0 mi SSW 11.5 mph - N/A   Clear
8:53 PM 84.0 °F 93.7 °F 77.0 °F 79% 29.88 in 10.0 mi SW 8.1 mph - N/A   Clear
9:53 PM 84.0 °F 96.0 °F 79.0 °F 85% 29.89 in 10.0 mi SW 8.1 mph - N/A   Clear
10:53 PM 82.9 °F 93.8 °F 79.0 °F 88% 29.91 in 10.0 mi SW 5.8 mph - N/A   Clear
11:53 PM 84.0 °F 97.3 °F 80.1 °F 88% 29.90 in 10.0 mi SW 9.2 mph - N/A   Clear